Selinsgrove, PA

2:29 PM EDT on June 25, 2017 (GMT -0400)
Penn Valley

Weather History for KSEG - February, 2013

Change the Weather History Date:

Thursday, February 7, 2013

  Actual Average (KIPT) Record (KIPT)
Temperature  
Mean Temperature 27 °F -  
Max Temperature 35 °F 36 °F 51 °F (1990)
Min Temperature 19 °F 20 °F -6 °F (1935)
Degree Days  
Heating Degree Days 38    
Moisture  
Dew Point 17 °F    
Average Humidity 66    
Maximum Humidity 89    
Minimum Humidity 48    
Precipitation  
Precipitation 0.00 in - - ()
Sea Level Pressure  
Sea Level Pressure 30.37 in    
Wind  
Wind Speed 3 mph (SSE)    
Max Wind Speed 13 mph    
Max Gust Speed -    
Visibility 10 miles    
Events      
Averages and records for this station are not official NWS values.
T = Trace of Precipitation, MM = Missing Value Source: NWS Daily Summary

Daily Weather History Graph

Daily Weather History Graph

Search for Another Location

Airport or City:

Trip Planner

Search our weather history database for the weather conditions in past years. The results will help you decide how hot, cold, wet, or windy it might be!

Date:

Astronomy

Feb. 07, 2013 Rise Set
Actual Time 7:11 AM EST 5:32 PM EST
Civil Twilight 6:42 AM EST 6:01 PM EST
Nautical Twilight 6:10 AM EST 6:33 PM EST
Astronomical Twilight 5:38 AM EST 7:05 PM EST
Moon 4:49 AM EST (2/7) 2:54 PM EST (2/7)
Length of Visible Light 11h 18m
Length of Day
10h 21m
Waning Crescent, 9% of the Moon is Illuminated
Feb 7
Waning Crescent
Feb 10
New
Feb 17
First Quarter
Feb 25
Full
Mar 4
Last Quarter

Hourly Weather History & Observations

Time (EST) Temp. Windchill Dew Point Humidity Pressure Visibility Wind Dir Wind Speed Gust Speed Precip Events Conditions
12:53 AM 21.0 °F 16.2 °F 17.1 °F 85% 30.37 in 10.0 mi NNW 3.5 mph - N/A   Clear
1:53 AM 19.9 °F - 17.1 °F 89% 30.38 in 10.0 mi Calm Calm - N/A   Clear
2:53 AM 21.0 °F - 18.0 °F 88% 30.40 in 9.0 mi Calm Calm - N/A   Clear
3:53 AM 19.9 °F - 17.1 °F 89% 30.41 in 10.0 mi Calm Calm - N/A   Clear
4:53 AM 19.9 °F 14.9 °F 17.1 °F 89% 30.41 in 10.0 mi NW 3.5 mph - N/A   Clear
5:53 AM 21.0 °F - 16.0 °F 81% 30.43 in 10.0 mi Calm Calm - N/A   Clear
6:53 AM 19.9 °F - 17.1 °F 89% 30.45 in 10.0 mi Calm Calm - N/A   Clear
7:53 AM 19.9 °F - 17.1 °F 89% 30.47 in 9.0 mi Calm Calm - N/A   Clear
8:53 AM 23.0 °F - 17.1 °F 78% 30.46 in 10.0 mi Calm Calm - N/A   Clear
9:53 AM 26.1 °F - 18.0 °F 71% 30.45 in 10.0 mi Calm Calm - N/A   Overcast
10:53 AM 28.0 °F - 16.0 °F 61% 30.45 in 10.0 mi Calm Calm - N/A   Overcast
11:53 AM 30.0 °F - 16.0 °F 56% 30.42 in 10.0 mi Calm Calm - N/A   Overcast
12:53 PM 35.1 °F 26.4 °F 17.1 °F 48% 30.38 in 10.0 mi South 12.7 mph - N/A   Overcast
1:53 PM 35.1 °F 27.4 °F 18.0 °F 50% 30.36 in 10.0 mi South 10.4 mph - N/A   Overcast
2:53 PM 35.1 °F 28.6 °F 18.0 °F 50% 30.33 in 10.0 mi SSE 8.1 mph - N/A   Overcast
3:53 PM 35.1 °F 27.4 °F 18.0 °F 50% 30.33 in 10.0 mi South 10.4 mph - N/A   Overcast
4:53 PM 34.0 °F 28.0 °F 17.1 °F 50% 30.33 in 10.0 mi South 6.9 mph - N/A   Overcast
5:53 PM 33.1 °F 27.7 °F 17.1 °F 52% 30.32 in 10.0 mi SSE 5.8 mph - N/A   Overcast
6:53 PM 33.1 °F 26.9 °F 16.0 °F 50% 30.33 in 10.0 mi SE 6.9 mph - N/A   Overcast
7:53 PM 33.1 °F 26.1 °F 15.1 °F 48% 30.32 in 10.0 mi SSE 8.1 mph - N/A   Overcast
8:53 PM 33.1 °F 27.7 °F 16.0 °F 50% 30.31 in 10.0 mi SSE 5.8 mph - N/A   Overcast
9:53 PM 33.1 °F 25.5 °F 17.1 °F 52% 30.30 in 10.0 mi SE 9.2 mph - N/A   Overcast
10:53 PM 32.0 °F 24.8 °F 19.9 °F 61% 30.27 in 10.0 mi SE 8.1 mph - N/A   Overcast
11:09 PM 32.0 °F 23.6 °F 21.2 °F 64% 30.25 in 10.0 mi SE 10.4 mph - N/A   Overcast
11:53 PM 32.0 °F 24.8 °F 21.9 °F 66% 30.25 in 10.0 mi SE 8.1 mph - N/A   Overcast